| time (UTC) | temp C | wind direction | speed KPH | gust KPH | rain 1hr cm | rain 24hr cm | rain mn cm | humidity % | barometer mb |
| 20260506051343 | 12 | 186 | 1.6 | 9.7 | 0.00 | 0.00 | 0.00 | 91 | 1007.2 |
| 20260506050346 | 12 | 152 | 0.0 | 0.0 | 0.00 | 0.00 | 0.00 | 92 | 1007.2 |
| 20260506044323 | 12 | 139 | 0.0 | 0.0 | 0.00 | 0.00 | 0.00 | 91 | 1007.2 |
| 20260506043321 | 12 | 310 | 0.0 | 0.0 | 0.00 | 0.00 | 0.00 | 91 | 1007.2 |
| 20260506042340 | 13 | 310 | 0.0 | 0.0 | 0.00 | 0.00 | 0.00 | 90 | 1007.0 |
| 20260506041338 | 13 | 311 | 0.0 | 0.0 | 0.00 | 0.00 | 0.00 | 89 | 1007.1 |
| 20260506040321 | 13 | 307 | 0.0 | 0.0 | 0.00 | 0.00 | 0.00 | 90 | 1007.3 |
| 20260506035326 | 13 | 300 | 0.0 | 0.0 | 0.00 | 0.00 | 0.00 | 91 | 1010.3 |
| 20260506034325 | 13 | 240 | 0.0 | 0.0 | 0.00 | 0.00 | 0.00 | 91 | 1007.5 |
| 20260506033324 | 12 | 241 | 0.0 | 0.0 | 0.00 | 0.00 | 0.00 | 91 | 1007.5 |
| 20260506032343 | 12 | 240 | 0.0 | 0.0 | 0.00 | 0.00 | 0.00 | 90 | 1007.6 |
| 20260506031321 | 13 | 240 | 0.0 | 0.0 | 0.00 | 0.00 | 0.00 | 90 | 1007.4 |
| 20260506030341 | 13 | 240 | 0.0 | 0.0 | 0.00 | 0.00 | 0.00 | 89 | 1007.3 |
| 20260506025322 | 13 | 240 | 0.0 | 0.0 | 0.00 | 0.00 | 0.00 | 89 | 1007.4 |
| 20260506024321 | 13 | 241 | 0.0 | 0.0 | 0.00 | 0.00 | 0.00 | 88 | 1007.4 |
| 20260506023325 | 14 | 241 | 0.0 | 0.0 | 0.00 | 0.00 | 0.00 | 87 | 1007.5 |
| 20260506022322 | 14 | 241 | 0.0 | 0.0 | 0.00 | 0.00 | 0.00 | 87 | 1007.5 |
| 20260506021340 | 15 | 241 | 0.0 | 0.0 | 0.00 | 0.00 | 0.00 | 86 | 1007.5 |
| 20260506020340 | 15 | 240 | 0.0 | 0.0 | 0.00 | 0.00 | 0.00 | 84 | 1007.5 |
| 20260506015338 | 16 | 240 | 0.0 | 0.0 | 0.00 | 0.00 | 0.00 | 82 | 1007.5 |
| 20260506014321 | 16 | 241 | 0.0 | 0.0 | 0.00 | 0.00 | 0.00 | 80 | 1007.5 |
| 20260506013321 | 16 | 240 | 0.0 | 0.0 | 0.00 | 0.00 | 0.00 | 81 | 1007.4 |
| 20260506012346 | 17 | 241 | 0.0 | 0.0 | 0.00 | 0.00 | 0.00 | 80 | 1007.5 |
| 20260506011401 | 17 | 241 | 0.0 | 0.0 | 0.00 | 0.00 | 0.00 | 74 | 1007.4 |
| 20260506010333 | 18 | 240 | 0.0 | 0.0 | 0.00 | 0.00 | 0.00 | 73 | 1007.0 |
| 20260506005337 | 18 | 241 | 0.0 | 0.0 | 0.00 | 0.00 | 0.00 | 70 | 1006.9 |
| 20260506004335 | 19 | 241 | 0.0 | 0.0 | 0.00 | 0.00 | 0.00 | 67 | 1006.7 |
| 20260506003349 | 20 | 240 | 0.0 | 0.0 | 0.00 | 0.00 | 0.00 | 66 | 1006.7 |
| 20260506002331 | 20 | 241 | 0.0 | 0.0 | 0.00 | 0.00 | 0.00 | 62 | 1006.7 |
| 20260506001330 | 21 | 240 | 0.0 | 0.0 | 0.00 | 0.00 | 0.00 | 58 | 1006.6 |
| 20260506000350 | 22 | 241 | 0.0 | 0.0 | 0.00 | 0.00 | 0.00 | 56 | 1006.6 |
| 20260505235329 | 22 | 240 | 0.0 | 11.3 | 0.00 | 0.00 | 0.00 | 55 | 1006.6 |
| 20260505234348 | 22 | 227 | 0.0 | 17.7 | 0.00 | 0.00 | 0.00 | 54 | 1006.4 |
| 20260505233324 | 23 | 238 | 1.6 | 11.3 | 0.00 | 0.00 | 0.00 | 53 | 1006.3 |
| 20260505232323 | 23 | 245 | 0.0 | 6.4 | 0.00 | 0.00 | 0.00 | 54 | 1006.2 |
| 20260505231343 | 23 | 219 | 1.6 | 12.9 | 0.00 | 0.00 | 0.00 | 51 | 1005.8 |
| 20260505230325 | 23 | 221 | 6.4 | 14.5 | 0.00 | 0.00 | 0.00 | 50 | 1005.8 |
| 20260505225324 | 24 | 195 | 6.4 | 17.7 | 0.00 | 0.00 | 0.00 | 49 | 1005.8 |
| 20260505224322 | 24 | 202 | 8.0 | 12.9 | 0.00 | 0.00 | 0.00 | 49 | 1005.7 |
| 20260505223327 | 23 | 202 | 6.4 | 12.9 | 0.00 | 0.00 | 0.00 | 50 | 1005.8 |
| 20260505222346 | 24 | 211 | 4.8 | 14.5 | 0.00 | 0.00 | 0.00 | 49 | 1005.8 |
| 20260505221342 | 24 | 226 | 6.4 | 16.1 | 0.00 | 0.00 | 0.00 | 48 | 1005.7 |
| 20260505220339 | 25 | 206 | 8.0 | 16.1 | 0.00 | 0.00 | 0.00 | 47 | 1005.6 |
| 20260505215342 | 25 | 222 | 4.8 | 16.1 | 0.00 | 0.00 | 0.00 | 46 | 1007.0 |
| 20260505214325 | 25 | 207 | 6.4 | 12.9 | 0.00 | 0.00 | 0.00 | 47 | 1005.4 |
| 20260505213323 | 25 | 194 | 3.2 | 19.3 | 0.00 | 0.00 | 0.00 | 47 | 1008.2 |
| 20260505212322 | 25 | 190 | 4.8 | 20.9 | 0.00 | 0.00 | 0.00 | 46 | 1005.8 |
| 20260505211341 | 25 | 204 | 9.7 | 14.5 | 0.00 | 0.00 | 0.00 | 47 | 1007.4 |
| 20260505210339 | 25 | 220 | 4.8 | 20.9 | 0.00 | 0.00 | 0.00 | 47 | 1005.4 |
| 20260505205337 | 25 | 239 | 9.7 | 22.5 | 0.00 | 0.00 | 0.00 | 45 | 1005.8 |
| 20260505204401 | 25 | 223 | 9.7 | 22.5 | 0.00 | 0.00 | 0.00 | 47 | 1005.3 |
| 20260505203321 | 25 | 250 | 11.3 | 16.1 | 0.00 | 0.00 | 0.00 | 46 | 1005.2 |
| 20260505202346 | 25 | 211 | 9.7 | 32.2 | 0.00 | 0.00 | 0.00 | 46 | 1005.2 |
| 20260505201324 | 25 | 182 | 14.5 | 25.7 | 0.00 | 0.00 | 0.00 | 45 | 1006.8 |
| 20260505200322 | 26 | 200 | 19.3 | 38.6 | 0.00 | 0.00 | 0.00 | 43 | 1005.3 |
| 20260505195342 | 26 | 213 | 14.5 | 33.8 | 0.00 | 0.00 | 0.00 | 46 | 1005.4 |
| 20260505194338 | 26 | 229 | 11.3 | 27.4 | 0.00 | 0.00 | 0.00 | 47 | 1005.0 |
| 20260505193337 | 27 | 199 | 20.9 | 35.4 | 0.00 | 0.00 | 0.00 | 44 | 1005.1 |
| 20260505192342 | 27 | 197 | 12.9 | 43.5 | 0.00 | 0.00 | 0.00 | 43 | 1005.6 |
| 20260505191323 | 26 | 259 | 16.1 | 45.1 | 0.00 | 0.00 | 0.00 | 47 | 1005.5 |
| 20260505190347 | 27 | 227 | 17.7 | 33.8 | 0.00 | 0.00 | 0.00 | 46 | 1005.5 |
| 20260505185323 | 27 | 206 | 22.5 | 46.7 | 0.00 | 0.00 | 0.00 | 47 | 1005.9 |
| 20260505184347 | 27 | 223 | 8.0 | 30.6 | 0.00 | 0.00 | 0.00 | 48 | 1007.7 |
| 20260505183323 | 27 | 259 | 19.3 | 45.1 | 0.00 | 0.00 | 0.00 | 47 | 1006.2 |
| 20260505182321 | 27 | 193 | 16.1 | 29.0 | 0.00 | 0.00 | 0.00 | 46 | 1006.7 |
| 20260505181340 | 26 | 211 | 14.5 | 27.4 | 0.00 | 0.00 | 0.00 | 50 | 1006.4 |
| 20260505180337 | 26 | 244 | 12.9 | 22.5 | 0.00 | 0.00 | 0.00 | 51 | 1006.5 |
| 20260505175324 | 26 | 229 | 11.3 | 24.1 | 0.00 | 0.00 | 0.00 | 50 | 1006.9 |
| 20260505174327 | 27 | 204 | 19.3 | 33.8 | 0.00 | 0.00 | 0.00 | 46 | 1007.2 |
| 20260505173323 | 26 | 208 | 11.3 | 24.1 | 0.00 | 0.00 | 0.00 | 51 | 1006.7 |
| 20260505172323 | 26 | 254 | 9.7 | 38.6 | 0.00 | 0.00 | 0.00 | 52 | 1006.7 |
| 20260505171340 | 27 | 200 | 14.5 | 27.4 | 0.00 | 0.00 | 0.00 | 51 | 1031.4 |
| 20260505170358 | 26 | 190 | 19.3 | 27.4 | 0.00 | 0.00 | 0.00 | 51 | 892.1 |
| 20260505165321 | 25 | 231 | 16.1 | 29.0 | 0.00 | 0.00 | 0.00 | 52 | 1006.9 |
| 20260505164344 | 26 | 203 | 14.5 | 33.8 | 0.00 | 0.00 | 0.00 | 51 | 1007.4 |
| 20260505163321 | 25 | 204 | 19.3 | 40.2 | 0.00 | 0.00 | 0.00 | 53 | 1008.5 |
| 20260505162324 | 25 | 218 | 22.5 | 45.1 | 0.00 | 0.00 | 0.00 | 52 | 1007.6 |
| 20260505161321 | 25 | 253 | 17.7 | 37.0 | 0.00 | 0.00 | 0.00 | 53 | 1007.8 |
| 20260505160333 | 25 | 268 | 24.1 | 35.4 | 0.00 | 0.00 | 0.00 | 52 | 1007.8 |
| 20260505153341 | 25 | 259 | 17.7 | 37.0 | 0.00 | 0.00 | 0.00 | 54 | 925.4 |
| 20260505152338 | 25 | 279 | 12.9 | 25.7 | 0.00 | 0.00 | 0.00 | 54 | 1007.9 |
| 20260505151321 | 25 | 252 | 22.5 | 33.8 | 0.00 | 0.00 | 0.00 | 54 | 1007.9 |
| 20260505150324 | 25 | 228 | 17.7 | 27.4 | 0.00 | 0.00 | 0.00 | 52 | 1007.9 |
| 20260505140320 | 22 | 190 | 14.5 | 25.7 | 0.00 | 0.00 | 0.00 | 56 | 1008.1 |
| 20260505124324 | 18 | 23 | 0.0 | 0.0 | 0.00 | 0.00 | 0.00 | 70 | 1008.7 |
| 20260505123323 | 17 | 22 | 0.0 | 0.0 | 0.00 | 0.00 | 0.00 | 77 | 1008.5 |
| 20260505122322 | 15 | 34 | 0.0 | 0.0 | 0.00 | 0.00 | 0.00 | 79 | 1008.6 |
| 20260505121321 | 13 | 34 | 0.0 | 0.0 | 0.00 | 0.00 | 0.00 | 83 | 1008.6 |
| 20260505120321 | 13 | 34 | 0.0 | 0.0 | 0.00 | 0.00 | 0.00 | 84 | 1008.8 |
| 20260505115339 | 12 | 34 | 0.0 | 0.0 | 0.00 | 0.00 | 0.00 | 87 | 1008.8 |
| 20260505114321 | 11 | 34 | 0.0 | 0.0 | 0.00 | 0.00 | 0.00 | 87 | 1008.7 |
| 20260505113325 | 11 | 34 | 0.0 | 0.0 | 0.00 | 0.00 | 0.00 | 89 | 1008.7 |
| 20260505112324 | 10 | 34 | 0.0 | 0.0 | 0.00 | 0.00 | 0.00 | 91 | 1008.5 |
| 20260505111322 | 10 | 34 | 0.0 | 0.0 | 0.00 | 0.00 | 0.00 | 92 | 1008.3 |
| 20260505110339 | 9 | 34 | 0.0 | 0.0 | 0.00 | 0.00 | 0.00 | 92 | 1008.4 |
| 20260505101322 | 9 | 34 | 0.0 | 0.0 | 0.00 | 0.00 | 0.00 | 92 | 1008.1 |
| 20260505100345 | 9 | 34 | 0.0 | 0.0 | 0.00 | 0.00 | 0.00 | 91 | 1008.0 |
| 20260505095343 | 9 | 34 | 0.0 | 0.0 | 0.00 | 0.00 | 0.00 | 91 | 1008.0 |
| 20260505094321 | 10 | 34 | 0.0 | 0.0 | 0.00 | 0.00 | 0.00 | 90 | 1008.0 |
| 20260505093340 | 10 | 34 | 0.0 | 0.0 | 0.00 | 0.00 | 0.00 | 90 | 1007.9 |
| 20260505092322 | 10 | 34 | 0.0 | 0.0 | 0.00 | 0.00 | 0.00 | 89 | 1007.8 |
| 20260505091322 | 10 | 34 | 0.0 | 0.0 | 0.00 | 0.00 | 0.00 | 88 | 1007.8 |
| 20260505090321 | 10 | 34 | 0.0 | 0.0 | 0.00 | 0.00 | 0.00 | 87 | 1007.8 |
| 20260505085321 | 11 | 34 | 0.0 | 0.0 | 0.00 | 0.00 | 0.00 | 87 | 1007.8 |
| 20260505084320 | 11 | 34 | 0.0 | 0.0 | 0.00 | 0.00 | 0.00 | 86 | 1007.8 |
| 20260505083337 | 11 | 34 | 0.0 | 0.0 | 0.00 | 0.00 | 0.00 | 86 | 1007.8 |
| 20260505082401 | 11 | 34 | 0.0 | 0.0 | 0.00 | 0.00 | 0.00 | 84 | 1007.8 |
| 20260505081322 | 12 | 34 | 0.0 | 0.0 | 0.00 | 0.00 | 0.00 | 82 | 1007.9 |
| 20260505080325 | 12 | 34 | 0.0 | 0.0 | 0.00 | 0.00 | 0.00 | 81 | 1007.8 |
| 20260505075324 | 12 | 34 | 0.0 | 0.0 | 0.00 | 0.00 | 0.00 | 80 | 1007.4 |
| 20260505074322 | 12 | 34 | 0.0 | 0.0 | 0.00 | 0.00 | 0.00 | 81 | 1007.3 |
| 20260505073340 | 12 | 34 | 0.0 | 0.0 | 0.00 | 0.00 | 0.00 | 81 | 1007.3 |
| 20260505072337 | 12 | 33 | 0.0 | 0.0 | 0.00 | 0.00 | 0.00 | 80 | 1007.4 |
| 20260505071400 | 12 | 33 | 0.0 | 4.8 | 0.00 | 0.00 | 0.00 | 79 | 1007.2 |
| 20260505070322 | 13 | 34 | 3.2 | 9.7 | 0.00 | 0.00 | 0.00 | 77 | 1007.3 |
| 20260505065321 | 13 | 322 | 0.0 | 4.8 | 0.00 | 0.00 | 0.00 | 76 | 1009.1 |
| 20260505064324 | 13 | 321 | 0.0 | 1.6 | 0.00 | 0.00 | 0.00 | 75 | 1007.5 |
| 20260505063324 | 14 | 319 | 0.0 | 0.0 | 0.00 | 0.00 | 0.00 | 75 | 1007.3 |
| 20260505062343 | 15 | 307 | 0.0 | 0.0 | 0.00 | 0.00 | 0.00 | 72 | 1007.7 |
| 20260505061320 | 15 | 308 | 0.0 | 0.0 | 0.00 | 0.00 | 0.00 | 71 | 1007.6 |
| 20260505060339 | 16 | 306 | 0.0 | 0.0 | 0.00 | 0.00 | 0.00 | 65 | 1007.7 |